Content
SEND FEEDBACK

Daily
Averages
Monthly
Summary
Mexico

COATEPEC HARINAS, MÉXICO


Home > North America > Mexico > México
Elevation: 7448 feet     Latitude: 18 55N     Longitude: 099 45W

WEATHER
 
SELECT A DAY
Number of Records: 166,023;   Date Range: 1/1/95 - 7/23/14
 
SHARE

PRINT THIS DATA

[ ← Previous Day ]
WEATHER ALMANAC - FEBRUARY 13, 2013
[ Next Day → ]
[ °C ]   °F
Weather ElementAverageHighLow
Temperature50.5 °F75.2 °F (2:45 pm)26.6 °F (6:45 am)
Dewpoint17.1 °F39.2 °F (11:45 pm)-4 °F (12:47 pm)
Humidity41 %93 % (11:45 pm)5 % (12:47 pm)
Barometer30.16 in30.37 in (9:43 am)29.72 in (2:45 pm)
Wind Speed5.6 mph17.3 mph (3:49 pm)
Weather ElementAverage
Visibility6 mi
Wind DirectionESE (110 °)

Weather ElementTotal
Precipitation---
Heating Degree Days14.1 (Base 65)
Growing Degree Days0.9 (Base 50)
Averaged from 24 records on February 13, 2013
WEATHER CONDITIONS BREAKOUT
WIND DIRECTION BREAKOUT
WEATHER BY HOUR - FEBRUARY 13, 2013
[ °C ]   °F
Local TimeTemperatureDewpointHumidityBarometerVisibilityWind DirectionWind SpeedGust SpeedPrecipitationEventsConditions
1:45 AM35.6 °F26.6 °F70 %30.36 in5.0 miENE (70°)3.5 mphClear
2:45 AM35.6 °F24.8 °F65 %29.88 in4.0 miCalmClear
3:45 AM33.8 °F21.2 °F60 %30.34 in3.0 miCalmClear
4:45 AM32.0 °F23.0 °F69 %30.33 in3.0 miCalmClear
5:45 AM32.0 °F23.0 °F69 %29.95 in3.0 miCalmClear
6:25 AM28.4 °F23.0 °F80 %30.33 in2.0 miESE (120°)3.5 mphClear
6:45 AM26.6 °F21.2 °F80 %30.34 in2.0 miEast (80°)3.5 mphClear
7:45 AM30.2 °F21.2 °F69 %30.36 in6.0 miNE (50°)3.5 mphClear
8:45 AM42.8 °F26.6 °F53 %29.95 in6.0 miEast (100°)3.5 mphClear
9:43 AM51.8 °F23.0 °F33 %30.37 in7.0 miCalmClear
10:47 AM64.4 °F12.2 °F13 %30.36 in8.0 miEast (100°)3.5 mphClear
11:50 AM69.8 °F-0.4 °F6 %29.80 in8.0 miSSE (160°)6.9 mphClear
12:47 PM71.6 °F-4.0 °F5 %30.30 in8.0 miWest (270°)6.9 mphClear
1:47 PM73.4 °F-2.2 °F5 %30.25 in8.0 miENE (60°)6.9 mphClear
2:45 PM75.2 °F-0.4 °F5 %29.72 in7.0 miWSW (250°)12.7 mphClear
3:49 PM73.4 °F-2.2 °F5 %30.23 in7.0 miWSW (250°)17.3 mphClear
4:45 PM69.8 °F-0.4 °F6 %30.22 in7.0 miWSW (250°)16.1 mphClear
5:51 PM66.2 °F12.2 °F12 %29.84 in7.0 miWSW (250°)13.8 mphClear
6:45 PM62.6 °F17.6 °F18 %30.25 in7.0 miWSW (240°)15.0 mphClear
7:51 PM57.2 °F24.8 °F29 %30.28 in7.0 miNorth (10°)3.5 mphClear
8:40 PM51.8 °F28.4 °F41 %29.92 in7.0 miNNW (330°)6.9 mphClear
9:45 PM44.6 °F24.8 °F46 %30.32 in7.0 miNE (40°)4.6 mphClear
10:45 PM42.8 °F26.6 °F53 %30.32 in7.0 miNorth (10°)3.5 mphClear
11:45 PM41.0 °F39.2 °F93 %29.83 in7.0 miCalmClear
Hourly data recorded from MMTO, located miles away from Coatepec Harinas, México







STORIES FROM OUR PARTNERS